EW3870 Weather Reports


Display with metric or nautical units.
time (UTC)temp
F
wind
direction
speed
MPH
gust
MPH
rain 1hr
in
rain 24hr
in
rain mn
in
humidity
%
barometer
mb
20190122020019 46 297 2.0 10.0 0.00 0.00 0.00 48 1023.6
20190122015019 46 308 5.0 9.0 0.00 0.00 0.00 50 1023.7
20190122014019 45 0.0 0.0 0.00 0.00 0.00 51 1023.7
20190122013019 45 0.0 0.0 0.00 0.00 0.00 54 1023.6
20190122012020 44 0.0 5.0 0.00 0.00 0.00 53 1023.7
20190122011020 44 284 0.0 2.0 0.00 0.00 0.00 56 1023.5
20190122010019 43 0.0 0.0 0.00 0.00 0.00 57 1023.5
20190122005019 43 0.0 0.0 0.00 0.00 0.00 58 1023.4
20190122004019 42 0.0 0.0 0.00 0.00 0.00 60 1023.4
20190122003019 42 0.0 0.0 0.00 0.00 0.00 60 1023.4
20190122002020 42 0.0 0.0 0.00 0.00 0.00 60 1023.3
20190122001019 42 0.0 0.0 0.00 0.00 0.00 59 1023.2
20190122000020 41 0.0 0.0 0.00 0.00 0.00 60 1023.1
20190121235019 41 0.0 0.0 0.00 0.00 0.00 60 1023.1
20190121234019 41 0.0 0.0 0.00 0.00 0.00 60 1023.0
20190121233019 41 0.0 1.0 0.00 0.00 0.00 60 1022.9
20190121232019 41 290 2.0 5.0 0.00 0.00 0.00 61 1022.9
20190121231019 41 0.0 0.0 0.00 0.00 0.00 61 1022.8
20190121230019 41 0.0 0.0 0.00 0.00 0.00 61 1022.7
20190121225019 41 0.0 0.0 0.00 0.00 0.00 61 1022.7
20190121224019 41 0.0 1.0 0.00 0.00 0.00 61 1022.7
20190121223019 41 282 2.0 8.0 0.00 0.00 0.00 62 1022.7
20190121222019 41 0.0 0.0 0.00 0.00 0.00 61 1022.6
20190121221019 41 298 0.0 1.0 0.00 0.00 0.00 63 1022.7
20190121220020 41 0.0 1.0 0.00 0.00 0.00 64 1022.7
20190121215019 40 0.0 0.0 0.00 0.00 0.00 66 1022.5
20190121214020 39 0.0 0.0 0.00 0.00 0.00 69 1022.5
20190121213019 39 0.0 0.0 0.00 0.00 0.00 71 1022.5
20190121212019 38 0.0 0.0 0.00 0.00 0.00 73 1022.4
20190121211019 38 0.0 0.0 0.00 0.00 0.00 73 1022.5
20190121210019 38 0.0 0.0 0.00 0.00 0.00 73 1022.4
20190121205019 38 0.0 0.0 0.00 0.00 0.00 73 1022.4
20190121204019 38 0.0 0.0 0.00 0.00 0.00 72 1022.5
20190121203019 38 0.0 0.0 0.00 0.00 0.00 71 1022.5
20190121202019 39 0.0 0.0 0.00 0.00 0.00 71 1022.5
20190121201019 39 0.0 0.0 0.00 0.00 0.00 70 1022.6
20190121200019 39 0.0 0.0 0.00 0.00 0.00 69 1022.8
20190121195020 39 0.0 0.0 0.00 0.00 0.00 69 1022.8
20190121194018 39 0.0 0.0 0.00 0.00 0.00 68 1022.9
20190121193019 39 0.0 0.0 0.00 0.00 0.00 68 1023.0
20190121192019 40 0.0 0.0 0.00 0.00 0.00 69 1023.1
20190121191018 40 0.0 0.0 0.00 0.00 0.00 69 1023.4
20190121190019 40 0.0 0.0 0.00 0.00 0.00 68 1023.3
20190121185019 40 0.0 0.0 0.00 0.00 0.00 68 1023.4
20190121184019 40 0.0 0.0 0.00 0.00 0.00 68 1023.5
20190121183019 40 0.0 0.0 0.00 0.00 0.00 68 1023.6
20190121182018 40 0.0 0.0 0.00 0.00 0.00 68 1023.6
20190121181019 40 0.0 0.0 0.00 0.00 0.00 68 1023.8
20190121180030 40 0.0 0.0 0.00 0.00 0.00 67 1023.7
20190121175018 40 0.0 0.0 0.00 0.00 0.00 67 1023.6
20190121174019 39 0.0 0.0 0.00 0.00 0.00 67 1023.7
20190121173018 39 0.0 0.0 0.00 0.00 0.00 67 1023.6
20190121172018 39 0.0 0.0 0.00 0.00 0.00 67 1023.7
20190121171018 39 0.0 0.0 0.00 0.00 0.00 67 1023.8
20190121170019 39 0.0 0.0 0.00 0.00 0.00 67 1023.9
20190121165019 39 0.0 0.0 0.00 0.00 0.00 68 1023.9
20190121164021 39 0.0 0.0 0.00 0.00 0.00 69 1023.9
20190121163020 39 0.0 0.0 0.00 0.00 0.00 70 1023.8
20190121162018 38 0.0 0.0 0.00 0.00 0.00 71 1024.0
20190121161018 38 0.0 0.0 0.00 0.00 0.00 71 1024.1
20190121160018 39 0.0 0.0 0.00 0.00 0.00 71 1024.3
20190121155019 39 0.0 0.0 0.00 0.00 0.00 71 1024.4
20190121154019 39 0.0 0.0 0.00 0.00 0.00 70 1024.4
20190121153019 39 0.0 0.0 0.00 0.00 0.00 70 1024.7
20190121152019 39 0.0 0.0 0.00 0.00 0.00 69 1024.6
20190121151021 39 0.0 0.0 0.00 0.00 0.00 69 1024.7
20190121150021 39 0.0 0.0 0.00 0.00 0.00 69 1024.8
20190121145019 40 0.0 0.0 0.00 0.00 0.00 69 1024.7
20190121144022 40 0.0 0.0 0.00 0.00 0.00 68 1024.6
20190121143019 40 0.0 0.0 0.00 0.00 0.00 68 1024.5
20190121142019 40 0.0 0.0 0.00 0.00 0.00 67 1024.4
20190121141021 40 0.0 0.0 0.00 0.00 0.00 67 1024.3
20190121140019 40 0.0 0.0 0.00 0.00 0.00 66 1024.1
20190121135019 40 0.0 0.0 0.00 0.00 0.00 66 1024.1
20190121134019 40 0.0 0.0 0.00 0.00 0.00 66 1024.1
20190121133019 41 0.0 0.0 0.00 0.00 0.00 65 1024.2
20190121132020 41 0.0 0.0 0.00 0.00 0.00 65 1024.1
20190121131019 41 0.0 0.0 0.00 0.00 0.00 65 1024.2
20190121130018 41 0.0 0.0 0.00 0.00 0.00 64 1024.0
20190121125018 41 0.0 0.0 0.00 0.00 0.00 62 1024.1
20190121124018 42 0.0 0.0 0.00 0.00 0.00 61 1024.1
20190121123018 42 0.0 0.0 0.00 0.00 0.00 60 1024.2
20190121122018 42 0.0 0.0 0.00 0.00 0.00 60 1024.2
20190121121019 42 0.0 0.0 0.00 0.00 0.00 59 1024.3
20190121120018 43 0.0 0.0 0.00 0.00 0.00 58 1024.2
20190121115021 43 0.0 0.0 0.00 0.00 0.00 58 1024.1
20190121114018 43 0.0 0.0 0.00 0.00 0.00 57 1024.2
20190121113018 43 0.0 0.0 0.00 0.00 0.00 57 1024.2
20190121112018 43 0.0 0.0 0.00 0.00 0.00 56 1024.2
20190121111018 43 0.0 0.0 0.00 0.00 0.00 56 1024.3
20190121110019 44 0.0 0.0 0.00 0.00 0.00 55 1024.4
20190121105018 44 0.0 0.0 0.00 0.00 0.00 55 1024.5
20190121104019 44 0.0 0.0 0.00 0.00 0.00 55 1024.5
20190121103019 44 0.0 0.0 0.00 0.00 0.00 54 1024.4
20190121102020 44 0.0 0.0 0.00 0.00 0.00 53 1024.5
20190121101019 44 319 0.0 2.0 0.00 0.00 0.00 52 1024.5
20190121100018 44 0.0 0.0 0.00 0.00 0.00 52 1024.4
20190121095021 45 0.0 0.0 0.00 0.00 0.00 50 1024.3
20190121094018 45 0.0 2.0 0.00 0.00 0.00 50 1024.3
20190121093018 45 0.0 0.0 0.00 0.00 0.00 48 1024.3
20190121092020 45 278 0.0 2.0 0.00 0.00 0.00 48 1024.2
20190121091020 45 301 1.0 4.0 0.00 0.00 0.00 48 1024.3
20190121090018 45 0.0 1.0 0.00 0.00 0.00 47 1024.3
20190121085018 46 0.0 1.0 0.00 0.00 0.00 46 1024.2
20190121084019 46 0.0 8.0 0.00 0.00 0.00 45 1024.0
20190121083018 46 0.0 0.0 0.00 0.00 0.00 44 1024.2
20190121082018 46 138 0.0 1.0 0.00 0.00 0.00 45 1024.2
20190121081018 46 317 0.0 5.0 0.00 0.00 0.00 45 1024.2
20190121080018 47 0.0 0.0 0.00 0.00 0.00 46 1024.2
20190121075018 47 0.0 0.0 0.00 0.00 0.00 44 1024.2
20190121074020 47 279 3.0 10.0 0.00 0.00 0.00 43 1024.3
20190121073022 47 293 1.0 11.0 0.00 0.00 0.00 43 1024.3
20190121072020 47 0.0 0.0 0.00 0.00 0.00 43 1024.3
20190121071020 47 0.0 12.0 0.00 0.00 0.00 42 1024.3
20190121070020 47 301 0.0 10.0 0.00 0.00 0.00 42 1024.3
20190121065020 47 0.0 0.0 0.00 0.00 0.00 43 1024.2
20190121064018 48 285 0.0 1.0 0.00 0.00 0.00 44 1024.2
20190121063021 47 272 0.0 8.0 0.00 0.00 0.00 44 1024.2
20190121062018 47 270 0.0 8.0 0.00 0.00 0.00 43 1024.1
20190121061020 47 284 0.0 4.0 0.00 0.00 0.00 44 1024.1
20190121060020 46 328 0.0 9.0 0.00 0.00 0.00 44 1024.2
20190121055020 46 249 0.0 1.0 0.00 0.00 0.00 44 1024.4
20190121054018 46 96 0.0 1.0 0.00 0.00 0.00 44 1024.7
20190121053020 46 311 1.0 8.0 0.00 0.00 0.00 46 1024.8
20190121052019 46 156 1.0 9.0 0.00 0.00 0.00 45 1024.9
20190121051019 46 0.0 10.0 0.00 0.00 0.00 45 1025.1
20190121050020 46 294 9.0 11.0 0.00 0.00 0.00 45 1025.2
20190121045019 46 310 4.0 11.0 0.00 0.00 0.00 44 1025.4
20190121044020 45 314 0.0 2.0 0.00 0.00 0.00 43 1025.7
20190121043020 45 266 1.0 10.0 0.00 0.00 0.00 42 1026.0
20190121042022 45 0.0 1.0 0.00 0.00 0.00 42 1026.1
20190121041019 45 292 4.0 10.0 0.00 0.00 0.00 41 1026.3
20190121040019 45 356 0.0 5.0 0.00 0.00 0.00 42 1026.5
20190121035021 44 303 2.0 8.0 0.00 0.00 0.00 43 1026.5
20190121034019 44 299 0.0 9.0 0.00 0.00 0.00 44 1027.0
20190121033019 44 0.0 0.0 0.00 0.00 0.00 42 1027.3
20190121032019 43 0.0 0.0 0.00 0.00 0.00 41 1027.5
20190121031020 44 314 1.0 6.0 0.00 0.00 0.00 42 1027.7
20190121030019 43 25 1.0 6.0 0.00 0.00 0.00 41 1027.9
20190121025020 43 305 2.0 10.0 0.00 0.00 0.00 43 1028.1
20190121024020 44 277 2.0 10.0 0.00 0.00 0.00 46 1028.2
20190121023019 43 286 0.0 2.0 0.00 0.00 0.00 48 1028.3
20190121022019 43 0.0 2.0 0.00 0.00 0.00 47 1028.3
20190121021019 42 0.0 0.0 0.00 0.00 0.00 47 1028.5